Location: Ailly
(50.0793°N, 1.9944°E)
Time: 21:15:32
(UTC+00:00)

Cosmos 2184 Rocket - Pass Details

Date: 15 January 2026
Orbit: 959 x 1001 km, 82.9° (Epoch: 18 February)

Event Time Altitude Azimuth Distance (km) Brightness Sun altitude
Rises 05:17:36 0° 180° (S) 3,654 7.1 -22.9°
Reaches altitude 10° 05:20:07 10° 178° (S) 2,706 6.4 -22.5°
Maximum altitude 05:26:16 73° 96° (E) 1,010 4.2 -21.6°
Drops below altitude 10° 05:32:25 10° 13° (NNE) 2,706 6.4 -20.6°
Sets 05:34:56 0° 12° (NNE) 3,655 7.0 -20.2°
